EDT,Max TemperatureF,Mean TemperatureF,Min TemperatureF,Max Dew PointF,MeanDew PointF,Min DewpointF,Max Humidity, Mean Humidity, Min Humidity, Max Sea Level PressureIn, Mean Sea Level PressureIn, Min Sea Level PressureIn, Max VisibilityMiles, Mean VisibilityMiles, Min VisibilityMiles, Max Wind SpeedMPH, Mean Wind SpeedMPH, Max Gust SpeedMPH,PrecipitationIn, CloudCover, Events, WindDirDegrees
2012-8-1,91,80,68,70,68,63,100,71,41,29.95,29.91,29.84,10,5,0,8,2,13,0.00,3,Fog,183
2012-8-2,93,82,71,72,69,64,93,67,41,29.98,29.89,29.83,10,10,8,18,3,22,0.02,1,Rain-Thunderstorm,228
2012-8-3,90,81,71,73,70,69,93,73,52,30.05,29.97,29.87,10,9,6,15,4,18,0.05,4,Rain-Thunderstorm,193
2012-8-4,87,80,72,72,70,66,93,81,69,30.18,30.11,30.03,10,10,8,20,3,26,0.02,3,Rain-Thunderstorm,173
2012-8-5,88,79,70,74,71,68,93,74,55,30.24,30.16,30.09,10,9,2,21,4,24,T,2,,174
2012-8-6,88,80,72,72,71,69,93,74,55,30.16,30.09,29.99,10,9,0,16,4,21,2.04,5,Fog-Rain-Thunderstorm,208
2012-8-7,83,78,72,74,72,70,100,85,69,30.08,30.01,29.95,10,9,2,9,5,13,0.37,6,Rain-Thunderstorm,197
2012-8-8,88,80,71,73,71,67,93,77,61,30.02,29.98,29.94,10,10,10,15,3,17,T,3,Thunderstorm,219
2012-8-9,86,77,68,73,68,64,97,81,65,29.99,29.93,29.86,10,6,0,30,4,43,1.46,6,Fog-Rain-Thunderstorm,146
2012-8-10,86,76,66,72,69,66,97,79,61,29.89,29.85,29.79,10,8,1,23,7,31,0.72,6,Rain-Thunderstorm,209
2012-8-11,83,75,66,72,68,63,100,82,63,29.93,29.88,29.83,10,8,2,10,3,13,T,5,Rain-Thunderstorm,223
2012-8-12,86,76,65,67,63,61,93,69,44,30.00,29.96,29.93,10,10,10,10,2,16,0.00,1,,54
2012-8-13,86,75,64,66,62,56,93,65,37,30.04,29.98,29.93,10,10,10,12,3,15,0.00,0,,212
2012-8-14,87,77,67,70,66,59,87,69,51,29.96,29.92,29.86,10,10,10,18,7,22,0.00,1,,235
2012-8-15,87,79,70,71,69,65,93,72,50,29.97,29.92,29.87,10,9,5,16,4,21,T,3,,246
2012-8-16,85,75,64,66,64,61,93,71,48,30.04,30.00,29.94,10,10,8,9,2,13,0.00,1,,119
2012-8-17,86,76,66,70,67,64,93,74,55,29.98,29.90,29.83,10,10,7,10,2,14,0.00,1,,320
2012-8-18,83,75,67,70,67,65,97,80,62,29.95,29.88,29.83,10,8,2,9,2,12,0.05,4,Rain,77
2012-8-19,78,74,69,70,69,67,100,86,71,29.92,29.87,29.82,10,7,1,13,3,16,0.47,6,Rain-Thunderstorm,181
2012-8-20,83,74,64,69,65,60,100,76,51,29.96,29.90,29.86,10,10,2,10,3,14,0.22,5,Rain,49
2012-8-21,84,74,63,70,64,59,93,71,48,30.06,30.01,29.95,10,9,1,10,4,15,0.08,5,Rain-Thunderstorm,40
2012-8-22,83,74,64,68,64,61,93,74,54,30.12,30.07,30.03,10,9,5,9,4,13,0.00,3,,33
2012-8-23,84,76,68,68,66,64,90,73,55,30.14,30.10,30.06,10,10,7,9,4,13,0.00,3,,38
2012-8-24,83,74,65,66,63,58,93,68,43,30.14,30.10,30.06,10,9,6,13,4,16,0.00,1,,54
2012-8-25,84,74,64,66,63,61,93,72,51,30.17,30.12,30.06,10,10,9,9,2,14,0.00,1,,87
2012-8-26,88,76,63,66,64,62,93,68,43,30.17,30.12,30.06,10,10,7,12,3,14,0.00,0,,109
2012-8-27,87,77,67,67,65,63,93,70,46,30.17,30.08,30.00,10,10,6,13,5,16,0.00,1,,36
2012-8-28,83,77,71,74,71,67,100,85,69,30.05,29.99,29.95,10,9,2,10,3,13,0.04,6,Rain,217
2012-8-29,82,77,71,73,71,69,93,81,69,30.04,29.97,29.93,10,9,2,10,3,12,0.28,5,Rain,220
2012-8-30,82,76,70,73,71,68,93,81,69,30.15,30.08,29.98,10,10,9,8,3,12,0.04,4,Rain,190
2012-8-31,91,82,72,73,71,69,100,76,52,30.22,30.17,30.10,10,9,1,12,5,15,0.00,2,,230